Regional Weather Roundup
Issued by NWS Mobile, AL

Home | Current Version | Previous Version | Text Only | Print | Product List | Glossary On
Versions: 1 2 3 4 5 6 7 8 9 10 11 12 13 14 15 16 17 18 19 20 21 22 23 24 25 26 27
000
ASUS44 KMOB 252012
RWRMOB
REGIONAL WEATHER ROUNDUP
NATIONAL WEATHER SERVICE MOBILE AL
300 PM CDT THU AUG 25 2016

NOTE: "FAIR" INDICATES FEW OR NO CLOUDS BELOW 12,000 FEET WITH NO
      SIGNIFICANT WEATHER AND/OR OBSTRUCTIONS TO VISIBILITY.

  * THESE STATIONS ARE PART OF THE UNIVERSITY OF SOUTH ALABAMA
    MESONET AND ARE NOT UNDER NWS OR FAA QUALITY CONTROL.

ALZ061>064-252100-
COASTAL ALABAMA

CITY           SKY/WX    TMP DP  RH WIND       PRES   REMARKS
MOBILE REG APT PTSUNNY   89  73  59 E10G21    30.05F HX  97
BROOKLEY FIELD SUNNY     92  72  51 SE10      30.06F HX  99
USA CAMPUS*    NOT AVBL
DOG RIVER*     NOT AVBL


CITY           SKY/WX    TMP DP  RH WIND       PRES   REMARKS
MOUNT VERNON*  NOT AVBL
SARALAND*      NOT AVBL
BAY MINETTE*   NOT AVBL
LOXLEY*        NOT AVBL
ROBERTSDALE*   NOT AVBL
FAIRHOPE*      NOT AVBL
ELBERTA*       NOT AVBL
FOLEY*         NOT AVBL
GRAND BAY*     NOT AVBL
DAUPHIN ISLND* NOT AVBL
BON SCOUR NWR* NOT AVBL
GULF SHORES    SUNNY     90  69  50 SE13G21   30.04F

$$

ALZ051>060-252100-
INTERIOR SOUTHWEST AND SOUTH CENTRAL ALABAMA

CITY           SKY/WX    TMP DP  RH WIND       PRES   REMARKS
GREENVILLE     MOSUNNY   94  70  45 VRB5      30.08F HX 100
EVERGREEN      MOSUNNY   91  71  51 VRB3      30.07F HX  97
CASTLEBERRY*   NOT AVBL
ATMORE*        NOT AVBL
DIXIE*         NOT AVBL
ANDALUSIA/OPP  MOSUNNY   95  69  42 NE7       30.07F HX 100
ANDALUSIA*     NOT AVBL
FLORALA APT    MOSUNNY   90  69  50 NE9       30.08F
FLORALA*       NOT AVBL

$$

FLZ001>006-252100-
WESTERN FLORIDA PANHANDLE

CITY           SKY/WX    TMP DP  RH WIND       PRES   REMARKS
PENSACOLA      SUNNY     92  68  45 E7        30.04F HX  96
NAS PENSACOLA  MOSUNNY   89  70  53 SE10      30.04F
MILTON         MOSUNNY   90  72  55 NE9       30.05F HX  97
WHTNG S FIELD  MOSUNNY   93  73  52 NE13      30.04F HX 102


CITY           SKY/WX    TMP DP  RH WIND       PRES   REMARKS
WALNUT HILL*   NOT AVBL
JAY*           NOT AVBL
DUKE FIELD     MOSUNNY   91  68  46 NE9       30.04F
CRESTVIEW      SUNNY     93  69  45 E9        30.06F HX  98
VALPARAISO     MOSUNNY   93  67  42 E10       30.04F HX  96
DESTIN         MOSUNNY   92  69  47 E12       30.04F HX  97

$$

MSZ076-079-252100-
INTERIOR SOUTHEAST MISSISSIPPI

CITY           SKY/WX    TMP DP  RH WIND       PRES   REMARKS
LEAKESVILLE*   NOT AVBL
AGRICOLA*      NOT AVBL

$$

MARINE OBSERVATIONS

STATION/POSITION TIME  TEMP    WIND        PRES    WAVE
                       AIR SEA DIR/SP/G            HT/PER
                 (UTC) (F)     (DEG/KT/KT) (MB)    (FT/S)
PASCAGOULA       1900   84     130/ 10/ 12 1017.9F
PETIT BOIS ISLND 1900   84     120/  6/  8 1018.9F
GRAND BAY        1800   86     120/ 17     1020.0
KATRINA CUT      1900   86     120/ 13     1019.0F
CEDAR POINT      1900   84      80/  3     1018.3F
E DAUPHIN ISLAND 1900   86     110/ 15/ 17 1017.9F
MIDDLE BAY LIGHT 1900   87     110/  5     1018.3F
USCG MOBILE BAY  1900   87 88  110/  6/  9 1018.7F
STATE DOCKS      1900   91 88              1018.1F
MEAHER PARK      1900   88     110/  5     1018.6S
WEEKS BAY        1800   90                   N/A
FORT MORGAN      1900   86     120/ 17/ 19 1017.8F
12 S ORANGE BCH  1950   85 86   90/ 14/ 17 1017.2F   3/ 5
PENSACOLA BAY    1900   90 89  170/  5/  7 1018.4F
64 S DAUPHIN ISL 1900   86 88   70/ 16/ 19 1017.0F
67 S FORT MORGAN 1930   87      60/ 19     1016.9F

$$

SELECTED LOCATIONS ACROSS THE REGION

CITY           SKY/WX    TMP DP  RH WIND       PRES   REMARKS
NEW ORLEANS    CLOUDY    86  77  74 S6        30.05F HX  97
GULFPORT       RAIN      78  77  96 SE5       30.04F FOG
PASCAGOULA AP  CLOUDY    89  76  65 SE12      30.04F HX 100
PASCAGOULA*    NOT AVBL
HATTIESBURG    LGT RAIN  89  73  59 E10G20    30.05F HX  97
LAUREL         MOSUNNY   91  72  52 E7        30.07F HX  98
MERIDIAN       SUNNY     97  71  42 E8        30.05F HX 104
JACKSON        PTSUNNY   94  73  50 E3        30.04F HX 103
MONTGOMERY     MOSUNNY   95  67  39 MISG      30.07F HX  99
TROY           MOSUNNY   90  71  53 NE9       30.09F HX  96
KINSTON*       NOT AVBL
GENEVA*        NOT AVBL
ASHFORD*       NOT AVBL
DOTHAN         MOSUNNY   89  72  56 E8        30.11F HX  96
PANAMA CITY    MOSUNNY   92  67  43 N15G21    30.03F HX  95

$$





USA.gov is the U.S. government's official web portal to all federal, state and local government web resources and services.